GW5488 Weather Reports


Display with metric or nautical units.
time (UTC)temp
F
wind
direction
speed
MPH
gust
MPH
rain 1hr
in
rain 24hr
in
rain mn
in
humidity
%
barometer
mb
20260506191304 35 272 0.0 1.0 0.00 0.02 0.02 75 1011.7
20260506190804 35 272 0.0 1.0 0.00 0.02 0.02 75 1011.7
20260506185804 36 264 2.0 7.0 0.00 0.02 0.02 75 1011.7
20260506185306 36 246 3.0 10.0 0.00 0.02 0.02 75 1011.5
20260506184804 36 255 5.0 12.0 0.00 0.02 0.02 75 1011.6
20260506184304 36 256 5.0 7.0 0.00 0.02 0.02 74 1011.4
20260506183804 36 261 4.0 9.0 0.00 0.02 0.02 73 1011.5
20260506183303 36 232 2.0 10.0 0.00 0.02 0.02 74 1011.4
20260506182803 36 241 5.0 10.0 0.00 0.02 0.02 73 1011.4
20260506181804 36 241 6.0 12.0 0.00 0.02 0.02 74 1011.4
20260506181303 36 239 5.0 13.0 0.00 0.02 0.02 75 1011.3
20260506180303 36 245 6.0 13.0 0.00 0.02 0.02 74 1011.4
20260506175804 37 256 7.0 12.0 0.00 0.02 0.02 73 1011.3
20260506175306 38 267 3.0 9.0 0.00 0.02 0.02 69 1011.2
20260506174804 38 262 3.0 6.0 0.00 0.02 0.02 66 1011.2
20260506173804 37 250 1.0 3.0 0.00 0.02 0.02 66 1011.2
20260506173304 37 276 1.0 3.0 0.00 0.02 0.02 65 1011.1
20260506172804 38 244 3.0 6.0 0.00 0.02 0.02 65 1011.1
20260506171804 38 246 1.0 6.0 0.00 0.02 0.02 65 1011.1
20260506171303 38 230 1.0 7.0 0.00 0.02 0.02 64 1011.1
20260506170804 38 258 2.0 5.0 0.00 0.02 0.02 65 1011.0
20260506170303 38 242 3.0 5.0 0.00 0.02 0.02 64 1011.0
20260506165804 38 237 2.0 6.0 0.00 0.02 0.02 64 1011.0
20260506165305 38 260 5.0 9.0 0.00 0.02 0.02 63 1011.0
20260506164804 38 229 4.0 9.0 0.00 0.02 0.02 63 1011.0
20260506164304 38 249 2.0 6.0 0.00 0.02 0.02 66 1011.0
20260506163804 38 216 2.0 9.0 0.00 0.02 0.02 65 1011.1
20260506163303 38 256 2.0 8.0 0.00 0.02 0.02 67 1011.2
20260506162804 38 254 2.0 5.0 0.00 0.02 0.02 70 1011.1
20260506162306 38 255 3.0 8.0 0.00 0.02 0.02 70 1011.2
20260506161804 37 250 2.0 6.0 0.00 0.02 0.02 72 1011.2
20260506161305 36 249 1.0 7.0 0.00 0.02 0.02 74 1011.2
20260506160803 36 233 3.0 6.0 0.00 0.02 0.02 74 1011.2
20260506160303 36 238 2.0 10.0 0.00 0.02 0.02 74 1011.2
20260506155804 36 226 7.0 15.0 0.00 0.02 0.02 73 1011.2
20260506155306 37 233 7.0 13.0 0.00 0.02 0.02 72 1011.3
20260506154803 39 221 5.0 10.0 0.00 0.02 0.02 66 1011.3
20260506154304 39 260 5.0 12.0 0.00 0.02 0.02 65 1011.2
20260506153804 39 252 5.0 10.0 0.00 0.02 0.02 61 1011.0
20260506152803 40 272 2.0 5.0 0.00 0.02 0.02 60 1011.0
20260506152306 40 263 2.0 6.0 0.00 0.02 0.02 60 1010.9
20260506151804 40 254 3.0 9.0 0.00 0.02 0.02 60 1010.9
20260506151304 40 273 2.0 6.0 0.00 0.02 0.02 60 1010.7
20260506150804 39 256 4.0 12.0 0.00 0.02 0.02 58 1010.9
20260506145803 40 253 4.0 10.0 0.00 0.02 0.02 56 1010.9
20260506144804 40 235 3.0 9.0 0.00 0.02 0.02 55 1010.8
20260506144304 40 230 3.0 8.0 0.00 0.02 0.02 57 1010.7
20260506143804 41 229 5.0 10.0 0.00 0.02 0.02 56 1010.8
20260506143304 41 229 7.0 13.0 0.00 0.02 0.02 54 1010.7
20260506142803 43 263 3.0 9.0 0.00 0.02 0.02 54 1010.8
20260506142306 43 248 1.0 3.0 0.00 0.02 0.02 52 1010.8
20260506141804 42 262 3.0 8.0 0.00 0.02 0.02 53 1010.9
20260506140804 41 247 2.0 14.0 0.00 0.02 0.02 57 1010.9
20260506135804 42 267 3.0 12.0 0.00 0.02 0.02 57 1010.9
20260506135306 42 210 2.0 12.0 0.00 0.02 0.02 55 1010.9
20260506134804 41 225 1.0 8.0 0.00 0.02 0.02 60 1010.9
20260506134304 40 217 3.0 12.0 0.00 0.02 0.02 58 1011.0
20260506133803 39 242 5.0 10.0 0.00 0.02 0.02 56 1011.0
20260506133304 40 235 4.0 12.0 0.00 0.02 0.02 60 1011.0
20260506132803 41 246 6.0 10.0 0.00 0.02 0.02 57 1011.0
20260506132307 43 219 7.0 12.0 0.00 0.02 0.02 53 1011.0
20260506131303 42 283 1.0 7.0 0.00 0.02 0.02 55 1010.9
20260506130804 41 248 3.0 12.0 0.00 0.02 0.02 59 1010.9
20260506130303 40 239 2.0 7.0 0.00 0.02 0.02 59 1010.9
20260506125803 40 247 3.0 6.0 0.00 0.02 0.02 58 1010.9
20260506125305 39 260 3.0 8.0 0.00 0.02 0.02 58 1010.9
20260506124804 39 262 3.0 9.0 0.00 0.02 0.02 56 1011.0
20260506124303 40 188 2.0 9.0 0.00 0.02 0.02 59 1010.9
20260506123303 42 316 1.0 6.0 0.00 0.02 0.02 60 1010.9
20260506122804 40 282 3.0 9.0 0.00 0.02 0.02 56 1010.9
20260506122305 39 247 5.0 10.0 0.00 0.02 0.02 55 1011.0
20260506121804 40 265 5.0 10.0 0.00 0.02 0.02 55 1010.9
20260506121306 40 263 5.0 10.0 0.00 0.02 0.02 54 1010.9
20260506120303 40 252 5.0 10.0 0.00 0.02 0.02 53 1010.9
20260506115804 43 276 2.0 5.0 0.00 0.02 0.02 55 1010.9
20260506115306 43 297 1.0 3.0 0.00 0.02 0.02 59 1010.8
20260506114803 43 281 2.0 9.0 0.00 0.02 0.02 60 1010.9
20260506114304 40 224 5.0 13.0 0.00 0.02 0.02 57 1011.0
20260506113804 40 297 5.0 12.0 0.00 0.02 0.02 58 1010.9
20260506113304 39 242 6.0 12.0 0.00 0.02 0.02 55 1010.9
20260506112804 40 256 9.0 14.0 0.00 0.02 0.02 55 1010.9
20260506112305 40 257 5.0 12.0 0.00 0.02 0.02 55 1010.9
20260506111804 40 265 6.0 14.0 0.00 0.02 0.02 55 1010.9
20260506110803 40 217 4.0 9.0 0.00 0.02 0.02 53 1010.7
20260506105803 42 205 4.0 10.0 0.00 0.02 0.02 54 1010.7
20260506105305 41 257 8.0 12.0 0.00 0.02 0.02 56 1010.8
20260506104804 39 267 8.0 14.0 0.00 0.02 0.02 55 1010.8
20260506103804 38 240 3.0 7.0 0.00 0.02 0.02 61 1010.7
20260506102803 39 228 2.0 3.0 0.00 0.02 0.02 60 1010.8
20260506101804 39 198 3.0 7.0 0.00 0.02 0.02 59 1010.9
20260506100803 37 240 2.0 6.0 0.00 0.02 0.02 63 1010.9
20260506100303 37 249 3.0 6.0 0.00 0.02 0.02 64 1010.9
20260506095305 37 258 3.0 5.0 0.00 0.02 0.02 66 1011.1
20260506094804 37 254 2.0 3.0 0.00 0.02 0.02 65 1011.1
20260506094304 37 248 3.0 7.0 0.00 0.02 0.02 65 1011.1
20260506093804 37 247 5.0 9.0 0.00 0.02 0.02 65 1011.1
20260506092804 37 237 3.0 7.0 0.00 0.02 0.02 67 1011.0
20260506091303 37 263 2.0 5.0 0.00 0.02 0.02 66 1011.1
20260506090304 36 235 3.0 10.0 0.00 0.02 0.02 66 1011.0
20260506085804 37 238 1.0 3.0 0.00 0.02 0.02 67 1011.0
20260506085305 36 207 2.0 6.0 0.00 0.02 0.02 68 1011.0
20260506084804 36 245 4.0 8.0 0.01 0.02 0.02 68 1010.9
20260506084304 36 255 1.0 7.0 0.01 0.03 0.02 70 1010.9
20260506083804 36 174 2.0 7.0 0.01 0.03 0.02 68 1010.9
20260506083304 36 237 2.0 7.0 0.01 0.03 0.02 68 1011.0
20260506082305 36 60 1.0 2.0 0.01 0.03 0.02 74 1011.0
20260506081804 36 188 1.0 3.0 0.01 0.03 0.02 74 1011.0
20260506081304 36 64 2.0 5.0 0.01 0.03 0.02 72 1011.0
20260506080804 36 44 1.0 3.0 0.01 0.04 0.02 71 1011.0
20260506080304 36 46 1.0 3.0 0.01 0.04 0.02 71 1010.9
20260506073304 35 168 0.0 1.0 0.00 0.04 0.01 80 1010.9
20260506072804 35 57 1.0 3.0 0.00 0.04 0.01 79 1010.8
20260506072305 34 248 0.0 2.0 0.00 0.04 0.01 80 1010.8
20260506071804 34 215 0.0 2.0 0.01 0.04 0.01 80 1010.9
20260506071304 34 178 1.0 2.0 0.01 0.04 0.01 78 1010.8
20260506070804 34 39 0.0 1.0 0.01 0.04 0.01 78 1010.7
20260506070304 34 39 1.0 2.0 0.01 0.04 0.01 80 1010.6
20260506062305 32 20 0.0 0.0 0.01 0.05 0.01 84 1010.7
20260506061304 32 21 0.0 1.0 0.00 0.04 0.00 84 1010.7
20260506060804 32 21 0.0 1.0 0.00 0.04 0.00 84 1010.6
20260506060304 32 20 0.0 1.0 0.00 0.04 0.00 83 1010.7
20260506051304 33 255 0.0 1.0 0.00 0.04 0.00 76 1010.5
20260506050803 33 255 0.0 1.0 0.00 0.04 0.00 76 1010.5
20260506050303 33 258 0.0 1.0 0.00 0.04 0.00 75 1010.6
20260506044303 33 261 0.0 1.0 0.00 0.04 0.00 76 1010.4
20260506043804 32 261 0.0 1.0 0.00 0.04 0.00 76 1010.4
20260506043304 32 261 0.0 1.0 0.00 0.04 0.00 77 1010.3
20260506042305 32 261 0.0 0.0 0.00 0.04 0.00 77 1010.5
20260506041803 32 261 0.0 0.0 0.00 0.04 0.00 77 1010.5
20260506041304 32 261 0.0 0.0 0.00 0.04 0.00 76 1010.4
20260506040804 32 261 0.0 0.0 0.00 0.04 0.00 76 1010.5
20260506040304 32 261 0.0 0.0 0.00 0.04 0.00 75 1010.5
20260506035804 32 281 0.0 1.0 0.00 0.04 0.00 75 1010.5
20260506035306 32 281 0.0 1.0 0.00 0.04 0.00 75 1010.5
20260506034304 32 281 0.0 0.0 0.00 0.04 0.00 76 1010.4
20260506033803 32 281 0.0 0.0 0.00 0.04 0.00 77 1010.4
20260506033303 32 281 0.0 1.0 0.00 0.04 0.00 77 1010.4
20260506032804 32 281 0.0 1.0 0.00 0.04 0.00 77 1010.4
20260506032305 32 281 0.0 0.0 0.00 0.04 0.00 76 1010.4
20260506031303 32 281 0.0 1.0 0.00 0.04 0.00 76 1010.4
20260506030303 32 281 0.0 1.0 0.00 0.04 0.00 76 1010.5
20260506025803 32 281 0.0 1.0 0.00 0.04 0.00 76 1010.5
20260506024804 32 281 0.0 1.0 0.00 0.04 0.00 77 1010.5
20260506024304 32 281 0.0 0.0 0.00 0.04 0.00 77 1010.5
20260506023303 32 281 0.0 1.0 0.00 0.04 0.00 75 1010.6
20260506022804 32 281 0.0 0.0 0.00 0.04 0.00 77 1010.6
20260506021803 32 281 0.0 1.0 0.00 0.04 0.00 77 1010.6
20260506020804 32 281 0.0 1.0 0.00 0.04 0.00 74 1010.7
20260506014303 31 282 0.0 0.0 0.00 0.04 0.00 78 1010.8
20260506013803 31 282 0.0 0.0 0.00 0.04 0.00 77 1010.7
20260506013303 31 282 0.0 0.0 0.00 0.04 0.00 78 1010.8
20260506012803 31 282 0.0 1.0 0.00 0.04 0.00 78 1010.7
20260506011803 32 282 0.0 1.0 0.00 0.04 0.00 78 1010.8
20260506011304 32 282 0.0 1.0 0.00 0.04 0.00 77 1010.7
20260506010804 31 282 0.0 1.0 0.00 0.04 0.00 76 1010.6
20260506005804 31 282 0.0 1.0 0.00 0.04 0.00 78 1010.6
20260506005306 31 282 0.0 1.0 0.00 0.04 0.00 79 1010.6
20260506004803 31 282 0.0 0.0 0.00 0.04 0.00 78 1010.6
20260506004304 31 282 0.0 0.0 0.00 0.04 0.00 78 1010.6
20260506003804 31 282 1.0 1.0 0.00 0.04 0.00 77 1010.6
20260506003304 31 300 0.0 1.0 0.00 0.04 0.00 78 1010.6
20260506002804 31 8 0.0 1.0 0.00 0.04 0.00 77 1010.6
20260506002305 31 306 0.0 2.0 0.00 0.04 0.00 79 1010.7
20260506001803 31 306 0.0 1.0 0.00 0.04 0.00 79 1010.7
20260506001304 31 278 0.0 1.0 0.00 0.04 0.00 81 1010.7
20260506000803 31 278 0.0 0.0 0.00 0.04 0.00 81 1010.8
20260506000303 31 278 0.0 0.0 0.00 0.04 0.00 81 1010.8
20260505235804 31 278 0.0 1.0 0.00 0.04 0.00 81 1010.9
20260505235305 30 278 0.0 1.0 0.00 0.04 0.00 80 1010.9
20260505234804 30 278 0.0 1.0 0.00 0.04 0.00 81 1010.9
20260505234303 30 278 0.0 1.0 0.00 0.04 0.00 82 1010.9
20260505233804 30 278 0.0 1.0 0.00 0.04 0.00 82 1010.9
20260505232803 29 278 0.0 1.0 0.00 0.04 0.00 83 1010.8
20260505231804 29 271 0.0 0.0 0.00 0.04 0.00 84 1010.7
20260505231304 30 271 0.0 1.0 0.00 0.04 0.00 84 1010.9
20260505230804 30 271 1.0 2.0 0.00 0.04 0.00 85 1011.0
20260505230304 30 271 1.0 2.0 0.00 0.04 0.00 84 1010.9
20260505225804 30 266 0.0 1.0 0.00 0.04 0.00 83 1010.9
20260505225305 30 266 0.0 1.0 0.00 0.04 0.00 83 1010.9
20260505224804 30 266 1.0 2.0 0.00 0.04 0.00 83 1010.9
20260505224303 31 271 0.0 0.0 0.00 0.04 0.00 82 1010.7
20260505223803 31 271 1.0 2.0 0.00 0.04 0.00 82 1010.7
20260505223303 31 271 0.0 1.0 0.00 0.04 0.00 81 1010.7
20260505222306 32 271 0.0 1.0 0.00 0.04 0.00 82 1010.7
20260505221803 32 271 0.0 1.0 0.00 0.04 0.00 82 1010.7
20260505221304 32 271 0.0 1.0 0.00 0.04 0.00 82 1010.7
20260505220803 32 271 0.0 1.0 0.00 0.04 0.00 83 1010.6
20260505220304 32 271 0.0 1.0 0.00 0.04 0.00 83 1010.6
20260505215804 32 271 0.0 1.0 0.00 0.04 0.04 83 1010.7
20260505215305 32 271 0.0 1.0 0.00 0.04 0.04 82 1010.7
20260505214804 32 271 0.0 1.0 0.00 0.04 0.04 82 1010.6
20260505214304 32 271 0.0 1.0 0.00 0.04 0.04 82 1010.6
20260505213804 32 271 0.0 0.0 0.00 0.04 0.04 81 1010.7
20260505213304 32 271 0.0 1.0 0.00 0.04 0.04 81 1010.6
20260505212804 33 271 0.0 0.0 0.00 0.04 0.04 81 1010.5
20260505212305 33 271 0.0 0.0 0.00 0.04 0.04 81 1010.6
20260505211803 33 271 0.0 0.0 0.00 0.04 0.04 80 1010.6
20260505210804 33 271 0.0 0.0 0.00 0.04 0.04 81 1010.6
20260505205804 33 271 0.0 1.0 0.00 0.04 0.04 80 1010.6
20260505205305 33 271 0.0 0.0 0.00 0.04 0.04 80 1010.6
20260505204804 33 271 0.0 0.0 0.00 0.04 0.04 79 1010.6
20260505204303 33 271 0.0 1.0 0.00 0.04 0.04 79 1010.6
20260505203804 33 271 0.0 0.0 0.00 0.04 0.04 79 1010.5
20260505203304 33 271 0.0 0.0 0.00 0.04 0.04 79 1010.5
20260505202306 33 271 0.0 1.0 0.00 0.04 0.04 78 1010.4
20260505201803 33 271 0.0 1.0 0.00 0.04 0.04 78 1010.6
20260505201304 33 271 0.0 1.0 0.00 0.04 0.04 78 1010.5
20260505200804 33 271 0.0 1.0 0.00 0.04 0.04 78 1010.4
20260505195803 33 271 0.0 1.0 0.00 0.04 0.04 78 1010.5
20260505195305 33 271 0.0 2.0 0.00 0.04 0.04 78 1010.4
20260505194804 33 273 0.0 2.0 0.00 0.04 0.04 77 1010.4
20260505194304 33 269 0.0 1.0 0.00 0.04 0.04 77 1010.4
20260505193304 33 279 0.0 2.0 0.00 0.04 0.04 78 1010.3
20260505192803 33 276 0.0 3.0 0.00 0.04 0.04 78 1010.3